Time,TemperatureF,DewpointF,PressureIn,WindDirection,WindDirectionDegrees,WindSpeedMPH,WindSpeedGustMPH,Humidity,HourlyPrecipIn,Conditions,Clouds,dailyrainin,SoftwareType,DateUTC
2013-04-06 00:05:00,32.0,19.0,30.25,North,355,15.0,-999.0,58,-99.99,,,0.00,weatherlink.com 1.10,2013-04-06 04:05:00,
2013-04-06 00:20:00,32.1,19.0,30.26,NNW,345,10.0,-999.0,60,-99.99,,,0.00,weatherlink.com 1.10,2013-04-06 04:20:00,
2013-04-06 00:35:00,31.9,21.0,30.27,NNW,346,7.0,-999.0,64,-99.99,,,0.00,weatherlink.com 1.10,2013-04-06 04:35:00,
2013-04-06 00:50:00,31.7,20.0,30.27,North,349,10.0,-999.0,63,-99.99,,,0.00,weatherlink.com 1.10,2013-04-06 04:50:00,
2013-04-06 01:05:00,31.7,21.0,30.27,North,355,10.0,-999.0,65,-99.99,,,0.00,weatherlink.com 1.10,2013-04-06 05:05:00,
2013-04-06 01:20:00,31.5,22.0,30.28,NNW,344,7.0,-999.0,67,-99.99,,,0.00,weatherlink.com 1.10,2013-04-06 05:20:00,
2013-04-06 01:35:00,31.5,22.0,30.28,North,355,10.0,-999.0,67,-99.99,,,0.00,weatherlink.com 1.10,2013-04-06 05:35:00,
2013-04-06 01:50:00,31.5,22.0,30.29,North,355,8.0,-999.0,67,-99.99,,,0.00,weatherlink.com 1.10,2013-04-06 05:50:00,
2013-04-06 02:05:00,31.5,22.0,30.29,North,355,8.0,-999.0,68,-99.99,,,0.00,weatherlink.com 1.10,2013-04-06 06:05:00,
2013-04-06 02:20:00,31.0,22.0,30.29,North,355,7.0,-999.0,70,-99.99,,,0.00,weatherlink.com 1.10,2013-04-06 06:20:00,
2013-04-06 02:35:00,30.8,22.0,30.30,North,355,5.0,-999.0,70,-99.99,,,0.00,weatherlink.com 1.10,2013-04-06 06:35:00,
2013-04-06 02:50:00,30.6,22.0,30.30,North,355,6.0,-999.0,71,-99.99,,,0.00,weatherlink.com 1.10,2013-04-06 06:50:00,
2013-04-06 03:05:00,30.8,22.0,30.30,NNW,346,7.0,-999.0,70,-99.99,,,0.00,weatherlink.com 1.10,2013-04-06 07:05:00,
2013-04-06 03:20:00,31.0,22.0,30.30,North,360,7.0,-999.0,70,-99.99,,,0.00,weatherlink.com 1.10,2013-04-06 07:20:00,
2013-04-06 03:36:00,30.7,22.0,30.30,North,360,4.0,-999.0,70,-99.99,,,0.00,weatherlink.com 1.10,2013-04-06 07:36:00,
2013-04-06 03:51:00,30.7,22.0,30.30,North,9,3.0,-999.0,70,-99.99,,,0.00,weatherlink.com 1.10,2013-04-06 07:51:00,
2013-04-06 04:06:00,30.9,21.0,30.30,NNE,24,3.0,-999.0,68,-99.99,,,0.00,weatherlink.com 1.10,2013-04-06 08:06:00,
2013-04-06 04:21:00,30.2,22.0,30.30,NNE,26,2.0,-999.0,70,-99.99,,,0.00,weatherlink.com 1.10,2013-04-06 08:21:00,
2013-04-06 04:36:00,30.5,22.0,30.31,NNE,26,4.0,-999.0,70,-99.99,,,0.00,weatherlink.com 1.10,2013-04-06 08:36:00,
2013-04-06 04:51:00,30.6,22.0,30.31,NNE,22,2.0,-999.0,70,-99.99,,,0.00,weatherlink.com 1.10,2013-04-06 08:51:00,
2013-04-06 05:06:00,30.6,22.0,30.31,NNE,22,0.0,-999.0,71,-99.99,,,0.00,weatherlink.com 1.10,2013-04-06 09:06:00,
2013-04-06 05:21:00,30.8,22.0,30.32,NNE,22,0.0,-999.0,70,-99.99,,,0.00,weatherlink.com 1.10,2013-04-06 09:21:00,
2013-04-06 05:36:00,28.3,21.0,30.32,NNE,22,0.0,-999.0,73,-99.99,,,0.00,weatherlink.com 1.10,2013-04-06 09:36:00,
2013-04-06 05:51:00,26.2,20.0,30.33,NNE,22,0.0,-999.0,78,-99.99,,,0.00,weatherlink.com 1.10,2013-04-06 09:51:00,
2013-04-06 06:21:00,25.7,20.0,30.33,South,173,0.0,-999.0,80,-99.99,,,0.00,weatherlink.com 1.10,2013-04-06 10:21:00,
2013-04-06 06:36:00,25.5,20.0,30.34,South,173,4.0,-999.0,81,-99.99,,,0.00,weatherlink.com 1.10,2013-04-06 10:36:00,
2013-04-06 06:51:00,26.1,21.0,30.35,South,173,1.0,-999.0,80,-99.99,,,0.00,weatherlink.com 1.10,2013-04-06 10:51:00,
2013-04-06 07:06:00,25.0,20.0,30.36,South,173,0.0,-999.0,82,-99.99,,,0.00,weatherlink.com 1.10,2013-04-06 11:06:00,
2013-04-06 07:21:00,24.8,20.0,30.36,South,175,0.0,-999.0,82,-99.99,,,0.00,weatherlink.com 1.10,2013-04-06 11:21:00,
2013-04-06 07:36:00,25.2,21.0,30.37,South,175,0.0,-999.0,84,-99.99,,,0.00,weatherlink.com 1.10,2013-04-06 11:36:00,
2013-04-06 07:51:00,26.7,22.0,30.37,South,175,0.0,-999.0,83,-99.99,,,0.00,weatherlink.com 1.10,2013-04-06 11:51:00,
2013-04-06 08:21:00,30.1,24.0,30.37,SSW,205,2.0,-999.0,78,-99.99,,,0.00,weatherlink.com 1.10,2013-04-06 12:21:00,
2013-04-06 08:36:00,31.6,24.0,30.38,SSW,205,0.0,-999.0,73,-99.99,,,0.00,weatherlink.com 1.10,2013-04-06 12:36:00,
2013-04-06 08:51:00,33.3,25.0,30.37,SE,146,0.0,-999.0,71,-99.99,,,0.00,weatherlink.com 1.10,2013-04-06 12:51:00,
2013-04-06 09:51:00,38.0,22.0,30.38,SE,138,0.0,-999.0,53,-99.99,,,0.00,weatherlink.com 1.10,2013-04-06 13:51:00,
2013-04-06 10:06:00,38.5,22.0,30.37,ESE,111,0.0,-999.0,52,-99.99,,,0.00,weatherlink.com 1.10,2013-04-06 14:06:00,
2013-04-06 10:21:00,38.7,24.0,30.37,North,360,2.0,-999.0,55,-99.99,,,0.00,weatherlink.com 1.10,2013-04-06 14:21:00,
2013-04-06 10:36:00,38.5,24.0,30.37,NNE,25,3.0,-999.0,56,-99.99,,,0.00,weatherlink.com 1.10,2013-04-06 14:36:00,
2013-04-06 10:51:00,38.4,24.0,30.37,NE,38,4.0,-999.0,57,-99.99,,,0.00,weatherlink.com 1.10,2013-04-06 14:51:00,
2013-04-06 11:06:00,38.0,25.0,30.37,NNE,24,6.0,-999.0,60,-99.99,,,0.00,weatherlink.com 1.10,2013-04-06 15:06:00,
2013-04-06 11:21:00,37.8,24.0,30.37,NNW,340,6.0,-999.0,59,-99.99,,,0.00,weatherlink.com 1.10,2013-04-06 15:21:00,
2013-04-06 11:37:00,38.2,25.0,30.37,NNE,16,6.0,-999.0,60,-99.99,,,0.00,weatherlink.com 1.10,2013-04-06 15:37:00,
2013-04-06 11:51:00,38.4,26.0,30.36,NNE,21,5.0,-999.0,61,-99.99,,,0.00,weatherlink.com 1.10,2013-04-06 15:51:00,
2013-04-06 12:06:00,38.7,26.0,30.36,NE,36,4.0,-999.0,61,-99.99,,,0.00,weatherlink.com 1.10,2013-04-06 16:06:00,
2013-04-06 12:21:00,38.2,26.0,30.36,NNE,24,9.0,-999.0,63,-99.99,,,0.00,weatherlink.com 1.10,2013-04-06 16:21:00,
2013-04-06 12:37:00,39.8,28.0,30.36,NE,53,8.0,-999.0,63,-99.99,,,0.00,weatherlink.com 1.10,2013-04-06 16:37:00,
2013-04-06 12:52:00,39.5,28.0,30.35,NE,34,6.0,-999.0,63,-99.99,,,0.00,weatherlink.com 1.10,2013-04-06 16:52:00,
2013-04-06 13:07:00,40.7,29.0,30.34,NNE,17,4.0,-999.0,63,-99.99,,,0.00,weatherlink.com 1.10,2013-04-06 17:07:00,
2013-04-06 13:22:00,40.1,28.0,30.34,NNE,30,6.0,-999.0,63,-99.99,,,0.00,weatherlink.com 1.10,2013-04-06 17:22:00,
2013-04-06 13:37:00,39.6,28.0,30.33,NNE,31,9.0,-999.0,63,-99.99,,,0.00,weatherlink.com 1.10,2013-04-06 17:37:00,
2013-04-06 13:52:00,39.5,28.0,30.32,NE,36,10.0,-999.0,63,-99.99,,,0.00,weatherlink.com 1.10,2013-04-06 17:52:00,
2013-04-06 14:07:00,39.9,28.0,30.32,NNE,32,9.0,-999.0,63,-99.99,,,0.00,weatherlink.com 1.10,2013-04-06 18:07:00,
2013-04-06 14:22:00,40.5,28.0,30.31,North,360,6.0,-999.0,61,-99.99,,,0.00,weatherlink.com 1.10,2013-04-06 18:22:00,
2013-04-06 14:37:00,40.2,27.0,30.30,NNE,28,9.0,-999.0,59,-99.99,,,0.00,weatherlink.com 1.10,2013-04-06 18:37:00,
2013-04-06 14:52:00,40.0,27.0,30.30,North,360,7.0,-999.0,61,-99.99,,,0.00,weatherlink.com 1.10,2013-04-06 18:52:00,
2013-04-06 15:07:00,38.9,28.0,30.29,NNE,21,4.0,-999.0,65,-99.99,,,0.00,weatherlink.com 1.10,2013-04-06 19:07:00,
2013-04-06 15:22:00,39.9,28.0,30.28,NE,42,11.0,-999.0,62,-99.99,,,0.00,weatherlink.com 1.10,2013-04-06 19:22:00,
2013-04-06 15:37:00,39.8,26.0,30.27,North,349,5.0,-999.0,59,-99.99,,,0.00,weatherlink.com 1.10,2013-04-06 19:37:00,
2013-04-06 15:52:00,38.8,27.0,30.26,NE,44,6.0,-999.0,63,-99.99,,,0.00,weatherlink.com 1.10,2013-04-06 19:52:00,
2013-04-06 16:07:00,39.7,27.0,30.25,NNE,29,6.0,-999.0,62,-99.99,,,0.00,weatherlink.com 1.10,2013-04-06 20:07:00,
2013-04-06 16:22:00,38.8,27.0,30.24,NNE,20,7.0,-999.0,62,-99.99,,,0.00,weatherlink.com 1.10,2013-04-06 20:22:00,
2013-04-06 16:37:00,39.6,27.0,30.23,NNE,22,7.0,-999.0,62,-99.99,,,0.00,weatherlink.com 1.10,2013-04-06 20:37:00,
2013-04-06 16:52:00,39.7,27.0,30.23,NE,42,4.0,-999.0,62,-99.99,,,0.00,weatherlink.com 1.10,2013-04-06 20:52:00,
2013-04-06 17:07:00,39.6,28.0,30.22,NNE,33,6.0,-999.0,63,-99.99,,,0.00,weatherlink.com 1.10,2013-04-06 21:07:00,
2013-04-06 17:22:00,40.6,28.0,30.22,NNW,344,5.0,-999.0,61,-99.99,,,0.00,weatherlink.com 1.10,2013-04-06 21:22:00,
2013-04-06 17:37:00,41.7,29.0,30.21,ENE,75,0.0,-999.0,61,-99.99,,,0.00,weatherlink.com 1.10,2013-04-06 21:37:00,
2013-04-06 17:52:00,41.2,29.0,30.21,ENE,62,4.0,-999.0,62,-99.99,,,0.00,weatherlink.com 1.10,2013-04-06 21:52:00,
2013-04-06 18:07:00,41.2,29.0,30.21,NE,44,0.0,-999.0,63,-99.99,,,0.00,weatherlink.com 1.10,2013-04-06 22:07:00,
2013-04-06 18:22:00,40.4,30.0,30.20,NE,49,2.0,-999.0,66,-99.99,,,0.00,weatherlink.com 1.10,2013-04-06 22:22:00,
2013-04-06 18:52:00,40.1,30.0,30.18,NE,38,0.0,-999.0,67,-99.99,,,0.00,weatherlink.com 1.10,2013-04-06 22:52:00,
2013-04-06 19:07:00,39.1,30.0,30.18,NE,55,0.0,-999.0,69,-99.99,,,0.00,weatherlink.com 1.10,2013-04-06 23:07:00,
2013-04-06 19:22:00,39.0,30.0,30.17,East,93,0.0,-999.0,71,-99.99,,,0.00,weatherlink.com 1.10,2013-04-06 23:22:00,
2013-04-06 19:37:00,39.2,30.0,30.17,East,101,0.0,-999.0,69,-99.99,,,0.00,weatherlink.com 1.10,2013-04-06 23:37:00,
2013-04-06 19:52:00,39.6,30.0,30.17,SE,141,0.0,-999.0,68,-99.99,,,0.00,weatherlink.com 1.10,2013-04-06 23:52:00,
2013-04-06 20:07:00,39.7,30.0,30.16,East,96,0.0,-999.0,68,-99.99,,,0.00,weatherlink.com 1.10,2013-04-07 00:07:00,
2013-04-06 20:22:00,39.8,30.0,30.15,SE,136,2.0,-999.0,68,-99.99,,,0.00,weatherlink.com 1.10,2013-04-07 00:22:00,
2013-04-06 20:37:00,39.9,29.0,30.15,SE,131,5.0,-999.0,65,-99.99,,,0.00,weatherlink.com 1.10,2013-04-07 00:37:00,
2013-04-06 20:52:00,40.0,27.0,30.15,SE,132,2.0,-999.0,61,-99.99,,,0.00,weatherlink.com 1.10,2013-04-07 00:52:00,
2013-04-06 21:07:00,40.0,27.0,30.14,ESE,115,5.0,-999.0,59,-99.99,,,0.00,weatherlink.com 1.10,2013-04-07 01:07:00,
2013-04-06 21:22:00,40.0,27.0,30.14,East,101,7.0,-999.0,59,-99.99,,,0.00,weatherlink.com 1.10,2013-04-07 01:22:00,
2013-04-06 21:37:00,40.0,26.0,30.13,SE,128,8.0,-999.0,58,-99.99,,,0.00,weatherlink.com 1.10,2013-04-07 01:37:00,
2013-04-06 21:52:00,39.8,26.0,30.12,ESE,119,6.0,-999.0,57,-99.99,,,0.00,weatherlink.com 1.10,2013-04-07 01:52:00,
2013-04-06 22:07:00,39.8,26.0,30.12,SE,136,4.0,-999.0,57,-99.99,,,0.00,weatherlink.com 1.10,2013-04-07 02:07:00,
2013-04-06 22:22:00,39.9,26.0,30.11,SE,133,8.0,-999.0,58,-99.99,,,0.00,weatherlink.com 1.10,2013-04-07 02:22:00,
2013-04-06 22:38:00,39.7,26.0,30.10,ESE,120,4.0,-999.0,58,-99.99,,,0.00,weatherlink.com 1.10,2013-04-07 02:38:00,
2013-04-06 22:53:00,39.6,26.0,30.10,SE,134,6.0,-999.0,58,-99.99,,,0.00,weatherlink.com 1.10,2013-04-07 02:53:00,
2013-04-06 23:08:00,39.4,26.0,30.09,East,101,7.0,-999.0,59,-99.99,,,0.00,weatherlink.com 1.10,2013-04-07 03:08:00,
2013-04-06 23:23:00,39.4,26.0,30.08,ESE,123,5.0,-999.0,60,-99.99,,,0.00,weatherlink.com 1.10,2013-04-07 03:23:00,
2013-04-06 23:38:00,39.3,26.0,30.06,ESE,117,6.0,-999.0,59,-99.99,,,0.00,weatherlink.com 1.10,2013-04-07 03:38:00,
2013-04-06 23:53:00,39.1,27.0,30.03,SSE,148,6.0,-999.0,61,-99.99,,,0.00,weatherlink.com 1.10,2013-04-07 03:53:00,